Location: Carthage
(33.8834°N, 106.6595°W)
Time: 19:30:09
(UTC+00:00)

Cosmos 2123 Rocket - Visible Passes

Search period start: 15 May 2026 00:00
Search period end: 25 May 2026 00:00
Orbit: 961 x 990 km, 82.9° (Epoch: 15 May)

Date Brightness Start Highest point End Pass type
(mag) Time Alt. Az. Time Alt. Az. Time Alt. Az.
15 May 7.1 03:14:46 10° WNW 03:16:21 11° W 03:17:57 10° W visible
17 May 6.4 02:17:16 10° NNW 02:22:26 27° W 02:27:34 10° SW visible
18 May 6.9 02:44:33 10° NW 02:47:27 14° W 02:50:21 10° WSW visible
